Retour au catalogue

COSMOS 2251 DEB

ActifLEO
NORAD 34875·DEBRIS·🇷🇺 Russia

Lancé Jun 16, 1993 depuis Plesetsk Cosmodrome

Loading…

Prochains Passages (prochaines 24 heures)

TLE

FraisSource: Space-Track

Époque: Sep 13, 2026, 13:17 UTC

1 34875U 93036ACN 26256.55360508  .00000824  00000-0  22100-3 0  9993
2 34875  74.0468   2.9516 0014767  54.5972 318.1207 14.49686164917376

Suivez COSMOS 2251 DEB en temps réel avec AllMySat

Download on the App Store